IZ8GMP-13 Weather Reports


time (UTC)temp
C
wind
direction
speed
KPH
gust
KPH
rain 1hr
cm
rain 24hr
cm
rain mn
cm
humidity
%
barometer
mb
20260507232636 18 0.0 0.0 0.00 0.00 0.00 77 1010.6
20260507230632 18 0.0 0.0 0.00 0.00 0.00 77 1010.8
20260507224628 18 0.0 0.0 0.00 0.00 0.00 76 1010.2
20260507220620 18 0.0 0.0 0.00 0.00 0.00 77 1010.2
20260507214616 18 0.0 0.0 0.00 0.00 0.00 77 1010.1
20260507202558 18 0.0 0.0 0.00 0.00 0.00 66 1009.8
20260507200553 20 0.0 0.0 0.00 0.00 0.00 63 1010.0
20260507194548 20 0.0 0.0 0.00 0.00 0.00 56 1009.5
20260507192544 20 0.0 0.0 0.00 0.00 0.00 58 1009.5
20260507190539 20 0.0 0.0 0.00 0.00 0.00 58 1009.4
20260507184535 20 0.0 0.0 0.00 0.00 0.00 56 1008.9
20260507182530 20 0.0 0.0 0.00 0.00 0.00 54 1008.8
20260507180525 21 0.0 0.0 0.00 0.00 0.00 54 1008.8
20260507174521 21 0.0 0.0 0.00 0.00 0.00 53 1008.7
20260507172516 21 0.0 0.0 0.00 0.00 0.00 52 1008.8
20260507164507 22 0.0 0.0 0.00 0.00 0.00 51 1008.3
20260507160458 22 0.0 0.0 0.00 0.00 0.00 46 1007.8
20260507154453 23 0.0 0.0 0.00 0.00 0.00 45 1007.7
20260507152449 23 0.0 0.0 0.00 0.00 0.00 43 1008.1
20260507150445 23 0.0 0.0 0.00 0.00 0.00 43 1008.3
20260507144441 23 0.0 0.0 0.00 0.00 0.00 41 1008.3
20260507142129 24 0.0 0.0 0.00 0.00 0.00 39 1009.2
20260507140426 24 0.0 0.0 0.00 0.00 0.00 39 1009.2
20260507130414 25 0.0 0.0 0.00 0.00 0.00 34 1009.9
20260507125739 26 0.0 0.0 0.00 0.00 0.00 32 1009.8
20260507123735 26 0.0 0.0 0.00 0.00 0.00 31 1009.9
20260507121730 26 0.0 0.0 0.00 0.00 0.00 29 1010.2
20260507115726 26 0.0 0.0 0.00 0.00 0.00 25 1010.0
20260507113721 27 0.0 0.0 0.00 0.00 0.00 22 1010.3
20260507093655 26 0.0 0.0 0.00 0.00 0.00 21 1010.5
20260507091651 21 0.0 0.0 0.00 0.00 0.00 46 1010.8
20260507085647 21 0.0 0.0 0.00 0.00 0.00 50 1011.2
20260507081639 21 0.0 0.0 0.00 0.00 0.00 52 1011.9
20260507075635 21 0.0 0.0 0.00 0.00 0.00 48 1012.0
20260507065623 21 0.0 0.0 0.00 0.00 0.00 54 1012.9
20260507063619 20 0.0 0.0 0.00 0.00 0.00 58 1013.4
20260507061615 18 0.0 0.0 0.00 0.00 0.00 66 1013.6
20260507055611 18 0.0 0.0 0.00 0.00 0.00 67 1013.4
20260507053608 18 0.0 0.0 0.00 0.00 0.00 67 1013.2
20260507051604 17 0.0 0.0 0.00 0.00 0.00 71 1013.5
20260507045600 17 0.0 0.0 0.00 0.00 0.00 72 1013.6
20260507043556 17 0.0 0.0 0.00 0.00 0.00 74 1013.8
20260507041552 17 0.0 0.0 0.00 0.00 0.00 76 1013.9
20260507035548 17 0.0 0.0 0.00 0.00 0.00 75 1013.8
20260507033544 17 0.0 0.0 0.00 0.00 0.00 73 1013.6
20260507031540 17 0.0 0.0 0.00 0.00 0.00 73 1013.4
20260507025536 17 0.0 0.0 0.00 0.00 0.00 73 1013.3
20260507023532 17 0.0 0.0 0.00 0.00 0.00 79 1013.6
20260507021528 17 0.0 0.0 0.00 0.00 0.00 78 1013.8
20260507015524 17 0.0 0.0 0.00 0.00 0.00 78 1013.4
20260507013520 17 0.0 0.0 0.00 0.00 0.00 78 1013.8
20260507011516 17 0.0 0.0 0.00 0.00 0.00 78 1013.9
20260507005512 17 0.0 0.0 0.00 0.00 0.00 77 1014.1
20260507003508 17 0.0 0.0 0.00 0.00 0.00 74 1014.0
20260507001504 18 0.0 0.0 0.00 0.00 0.00 64 1014.0
20260506235500 18 0.0 0.0 0.00 0.00 0.00 55 1013.9